Total_Precipitation_Accumulation
0.46 0.44 0.40 0.41 0.46 0.50 0.54 0.62 0.70 0.88 0.98 1.03 1.16 1.36 1.52 1.69 1.84 1.91 1.79 1.63 1.62 1.79 1.94 1.86 1.93 1.94 1.82 1.83 1.88 1.92 1.88 1.67 1.53 1.59 1.49 1.21 0.96 1.01 0.98 0.93 0.97 1.04 1.13
0.32 0.31 0.28 0.30 0.32 0.33 0.38 0.46 0.55 0.62 0.76 0.93 1.19 1.39 1.69 1.76 1.83 1.95 2.00 1.91 1.85 2.02 2.07 2.15 2.22 2.24 2.24 2.17 2.07 2.19 2.34 2.06 1.80 1.91 2.20 1.82 1.41 1.02 0.81 0.88 0.92 1.03 1.27
0.21 0.17 0.18 0.22 0.28 0.27 0.29 0.37 0.48 0.60 0.83 1.06 1.39 1.68 1.96 2.05 2.09 2.02 2.07 2.12 2.16 2.23 2.28 2.34 2.39 2.39 2.23 2.22 2.32 2.46 2.80 2.60 2.22 2.00 2.27 2.13 1.81 1.47 1.02 0.91 0.95 1.04 1.21
0.19 0.16 0.17 0.19 0.21 0.25 0.31 0.43 0.62 0.81 1.07 1.39 1.78 2.06 2.31 2.43 2.27 2.22 2.21 2.19 2.14 2.19 2.30 2.32 2.31 2.28 2.21 2.26 2.32 2.37 2.79 2.99 2.69 2.32 1.93 1.73 1.70 1.78 1.50 1.09 1.01 1.08 1.09
0.24 0.22 0.23 0.25 0.31 0.39 0.48 0.65 0.91 1.21 1.47 1.71 1.91 2.15 2.30 2.31 2.26 2.21 2.20 2.11 2.06 2.05 2.07 2.09 2.19 2.22 2.25 2.30 2.46 2.58 2.85 2.87 2.85 2.65 2.43 2.21 1.89 1.55 1.63 1.57 1.28 1.20 1.09
0.29 0.30 0.32 0.40 0.48 0.57 0.73 0.91 1.09 1.39 1.58 1.70 1.81 1.97 2.13 2.18 2.18 2.17 2.19 2.18 2.14 2.04 1.96 1.91 1.99 2.13 2.27 2.32 2.41 2.58 2.82 2.91 2.97 2.88 2.60 2.51 2.34 2.05 1.93 1.66 1.51 1.48 1.25
0.39 0.41 0.51 0.66 0.73 0.78 0.90 1.06 1.14 1.34 1.44 1.50 1.60 1.73 1.80 1.84 1.87 1.87 1.87 1.80 1.76 1.76 1.82 1.87 1.95 2.08 2.17 2.25 2.37 2.51 2.56 2.67 2.90 2.90 2.72 2.50 2.31 2.29 2.17 2.05 1.71 1.52 1.32
0.58 0.68 0.82 0.91 0.98 1.01 0.99 1.04 1.18 1.21 1.21 1.26 1.26 1.37 1.46 1.52 1.56 1.53 1.53 1.58 1.62 1.64 1.61 1.66 1.73 1.95 2.13 2.20 2.30 2.32 2.30 2.35 2.52 2.52 2.59 2.55 2.27 2.23 2.12 2.12 2.20 1.90 1.67
0.83 1.05 1.23 1.32 1.40 1.34 1.18 1.06 1.06 1.03 1.01 1.12 1.19 1.22 1.28 1.33 1.34 1.34 1.27 1.38 1.42 1.42 1.38 1.43 1.47 1.59 1.81 2.04 2.19 2.15 2.07 2.04 2.19 2.24 2.32 2.45 2.48 2.39 2.28 2.24 2.32 2.29 2.03
1.25 1.52 1.75 1.86 1.85 1.67 1.44 1.21 1.03 0.94 0.91 0.98 1.08 1.17 1.18 1.18 1.14 1.16 1.08 1.13 1.24 1.23 1.20 1.22 1.30 1.46 1.58 1.77 1.98 2.06 2.00 2.00 2.07 2.17 2.27 2.39 2.51 2.55 2.34 2.29 2.28 2.16 2.11
1.68 1.85 2.01 2.06 1.82 1.65 1.40 1.15 0.99 0.99 1.00 1.04 1.08 1.12 1.08 1.05 1.02 0.98 0.93 0.97 1.06 1.07 1.07 1.22 1.28 1.35 1.45 1.65 1.90 2.08 2.08 2.01 2.01 1.99 2.06 2.22 2.31 2.53 2.49 2.40 2.29 2.16 2.02
1.44 1.54 1.63 1.59 1.56 1.53 1.35 1.17 1.07 1.07 1.10 1.13 1.18 1.13 1.05 1.00 0.98 0.95 0.86 0.84 0.80 0.80 0.93 1.06 1.10 1.15 1.20 1.39 1.67 1.87 1.93 1.92 1.83 1.78 1.89 2.09 2.25 2.46 2.58 2.53 2.37 2.28 2.14
1.25 1.24 1.27 1.35 1.38 1.36 1.25 1.22 1.18 1.19 1.20 1.18 1.10 1.03 0.97 0.88 0.85 0.75 0.68 0.74 0.74 0.80 0.91 1.00 1.07 1.11 1.16 1.21 1.31 1.48 1.61 1.61 1.56 1.59 1.63 1.66 1.85 2.12 2.31 2.33 2.35 2.39 2.36
1.00 0.99 1.07 1.16 1.24 1.23 1.19 1.14 1.09 1.14 1.24 1.30 1.22 1.11 1.00 0.91 0.87 0.77 0.68 0.65 0.68 0.76 0.85 0.91 0.99 1.08 1.12 1.13 1.15 1.18 1.25 1.26 1.34 1.41 1.42 1.46 1.51 1.73 1.90 1.98 2.17 2.42 2.45
0.67 0.72 0.78 0.80 0.78 0.75 0.81 0.84 0.91 1.02 1.17 1.31 1.29 1.16 1.00 0.89 0.84 0.80 0.71 0.68 0.67 0.68 0.76 0.81 0.83 0.88 0.99 1.09 1.12 1.00 0.98 1.07 1.19 1.20 1.15 1.16 1.26 1.41 1.52 1.56 1.91 2.26 2.46
0.43 0.43 0.45 0.45 0.44 0.41 0.40 0.43 0.51 0.67 0.91 1.17 1.16 0.96 0.79 0.67 0.62 0.64 0.66 0.66 0.63 0.66 0.71 0.70 0.72 0.80 0.83 1.01 1.01 0.86 0.84 0.91 1.01 1.09 1.07 0.96 0.94 0.99 1.10 1.18 1.33 1.60 1.84
0.33 0.32 0.31 0.31 0.30 0.30 0.30 0.32 0.40 0.52 0.70 0.82 0.80 0.70 0.60 0.57 0.60 0.63 0.59 0.60 0.62 0.63 0.65 0.64 0.64 0.67 0.79 0.84 0.71 0.72 0.75 0.83 0.90 0.96 1.01 0.92 0.81 0.90 0.97 1.08 1.15 1.12 1.18
0.24 0.23 0.23 0.24 0.28 0.29 0.32 0.36 0.42 0.47 0.52 0.55 0.57 0.52 0.50 0.51 0.55 0.57 0.56 0.63 0.69 0.67 0.66 0.69 0.67 0.65 0.73 0.73 0.60 0.65 0.68 0.72 0.79 0.90 1.00 1.03 0.95 0.96 1.09 1.09 1.13 1.04 0.96
0.17 0.15 0.15 0.15 0.18 0.18 0.19 0.20 0.23 0.25 0.26 0.25 0.26 0.27 0.28 0.31 0.33 0.34 0.41 0.53 0.60 0.63 0.67 0.72 0.73 0.65 0.64 0.69 0.60 0.61 0.64 0.69 0.74 0.78 0.86 0.94 0.91 1.08 1.21 1.18 1.31 1.29 1.14
0.15 0.15 0.13 0.14 0.15 0.15 0.15 0.13 0.14 0.14 0.15 0.15 0.15 0.18 0.20 0.20 0.19 0.23 0.28 0.34 0.35 0.42 0.53 0.55 0.57 0.61 0.60 0.78 0.68 0.67 0.66 0.72 0.83 0.87 0.84 1.00 1.01 1.12 1.13 1.07 1.30 1.33 1.23
0.14 0.16 0.15 0.15 0.16 0.17 0.15 0.14 0.14 0.14 0.15 0.19 0.21 0.21 0.21 0.21 0.22 0.25 0.27 0.29 0.30 0.35 0.39 0.43 0.47 0.55 0.64 0.80 0.80 0.83 0.79 0.83 0.98 0.97 0.89 0.82 0.96 0.85 0.95 0.99 1.00 1.23 1.27
0.14 0.15 0.15 0.17 0.18 0.17 0.15 0.15 0.15 0.15 0.16 0.19 0.20 0.22 0.23 0.24 0.25 0.26 0.30 0.33 0.34 0.34 0.35 0.36 0.41 0.47 0.55 0.65 0.72 0.74 0.78 0.86 0.94 1.00 0.89 0.86 0.94 0.78 0.76 0.78 0.89 1.10 1.23
0.13 0.13 0.14 0.14 0.15 0.15 0.14 0.14 0.16 0.17 0.17 0.19 0.20 0.22 0.24 0.23 0.22 0.25 0.30 0.33 0.35 0.36 0.38 0.41 0.47 0.52 0.56 0.59 0.60 0.59 0.62 0.69 0.75 0.77 0.85 0.87 0.84 0.76 0.70 0.70 0.80 0.89 1.00
0.13 0.12 0.14 0.15 0.16 0.17 0.16 0.18 0.17 0.17 0.17 0.19 0.21 0.22 0.22 0.22 0.23 0.25 0.29 0.32 0.35 0.38 0.42 0.47 0.50 0.55 0.57 0.59 0.58 0.62 0.67 0.65 0.64 0.64 0.65 0.68 0.72 0.73 0.67 0.67 0.72 0.80 0.91
0.14 0.16 0.17 0.16 0.16 0.18 0.20 0.23 0.24 0.21 0.18 0.19 0.21 0.20 0.21 0.22 0.24 0.26 0.28 0.30 0.31 0.38 0.47 0.51 0.54 0.54 0.52 0.51 0.55 0.64 0.73 0.81 0.86 0.92 0.81 0.79 0.80 0.77 0.70 0.66 0.68 0.74 0.82
0.15 0.17 0.18 0.18 0.18 0.18 0.20 0.22 0.25 0.27 0.27 0.25 0.22 0.21 0.21 0.23 0.24 0.26 0.26 0.29 0.31 0.36 0.39 0.40 0.43 0.44 0.46 0.49 0.51 0.56 0.66 0.76 0.90 1.05 1.01 1.04 1.05 1.00 0.89 0.78 0.70 0.67 0.70